Regional Weather Roundup
Issued by NWS

Home | Current Version | Previous Version | Graphics & Text | Print | Product List | Glossary On
Versions: 1 2 3 4 5 6 7 8 9 10 11 12 13 14 15 16 17 18 19 20 21 22 23 24 25 26 27
000
ASUS45 KTFX 271510
RWRMT
MONTANA REGIONAL WEATHER ROUNDUP
NATIONAL WEATHER SERVICE GREAT FALLS MT
900 AM MDT SAT MAY 27 2017

NOTE: "FAIR" INDICATES FEW OR NO CLOUDS BELOW 12000 FEET WITH NO
SIGNIFICANT WEATHER AND/OR OBSTRUCTIONS TO VISIBILITY.

MTZ001>007-043-271600-
WEST OF THE DIVIDE

CITY           SKY/WX    TMP DP  RH WIND       PRES   REMARKS
KALISPELL      SUNNY     56  42  59 NE7       30.13R
MISSOULA       CLOUDY    53  44  71 CALM      30.18R
BUTTE          SUNNY     52  35  52 CALM      30.21R
MULLAN PASS    SUNNY     50  32  50 CALM      30.21R
ANACONDA         N/A     57  36  44 W5        30.17R
DEER LODGE       N/A     55  41  58 CALM      30.21R
EUREKA           N/A     55  39  54 CALM      30.14
HAMILTON         N/A     55  37  50 S5        30.18R
PLAINS           N/A     49  41  74 CALM      30.14
RONAN            N/A     62  45  53 W3        30.16R
$$

MTZ008-052>055-271600-
SOUTHWEST MONTANA

CITY           SKY/WX    TMP DP  RH WIND       PRES   REMARKS
BOZEMAN        SUNNY     54  40  59 CALM      30.18R
DILLON         SUNNY     53  38  56 SW8       30.19R
ENNIS          PTSUNNY   50  37  62 CALM      30.24R
THREE FORKS      N/A     54  41  61 CALM      30.14R
TWIN BRIDGES     N/A     53  34  48 SE1       30.16R
$$

MTZ009-010-012-014-046-048-049-054-271600-
EAST SLOPES AND CENTRAL MONTANA

CITY           SKY/WX    TMP DP  RH WIND       PRES   REMARKS
CUT BANK       MOSUNNY   63  39  41 W15       30.05R
GREAT FALLS    CLOUDY    57  39  51 SW15      30.07R
MALMSTROM AFB  CLOUDY    57  41  55 SW14      30.07R
HELENA         SUNNY     53  41  63 E6        30.15R
CHOTEAU          N/A     64  37  36 NW14      30.09R
CONRAD           N/A     66  50  56 W15       30.07R
$$

MTZ011-013-016-021-045-047-050-051-271600-
NORTH CENTRAL MONTANA

CITY           SKY/WX    TMP DP  RH WIND       PRES   REMARKS
HAVRE          CLOUDY    60  40  47 SW18G24   29.98R
LEWISTOWN      CLOUDY    55  39  54 W3        30.07R
N BAR RANCH      N/A     61  32  33 W20G33    30.08R
CHINOOK          N/A     63  39  42 W16       29.95S
FORT BENTON      N/A     59  39  47 CALM      30.04S
$$

MTZ017>020-022>027-061-062-271600-
NORTHEAST MONTANA

CITY           SKY/WX    TMP DP  RH WIND       PRES   REMARKS
GLASGOW        CLOUDY    58  40  51 N7        29.91S
JORDAN           N/A     58  38  47 W12       29.96S
SIDNEY         CLOUDY    61  40  45 W13       29.89S
WOLF POINT     CLOUDY    64  40  41 W9        29.89F
MALTA          PTSUNNY   57  41  54 W16       29.92R
PLENTYWOOD       N/A     63  39  42 W10       29.85F
POPLAR           N/A     59  39  47 W12       29.89S
SCOBEY           N/A     62  37  39 W13       29.86S
$$

MTZ028>42-056>058-271600-
SOUTHCENTRAL AND SOUTHEAST MONTANA

CITY           SKY/WX    TMP DP  RH WIND       PRES   REMARKS
BAKER          PTSUNNY   55  40  56 W15       29.98S
BILLINGS       MOSUNNY   54  39  57 SW14      30.08R
LIVINGSTON     SUNNY     57  36  45 SW15      30.14S
MILES CITY     MOSUNNY   61  38  42 W15       29.99S
BIG TIMBER     SUNNY     55  37  50 W23       30.14R
EKALAKA          N/A     57  39  51 W12       29.99S
FORSYTH          N/A     57  39  51 W12       30.00S
LAUREL           N/A     56  37  48 S8        30.07F
ROUNDUP          N/A     55  40  57 S10       29.96R
$$

REGIONAL REPORTS...DAKOTAS

CITY           SKY/WX    TMP DP  RH WIND       PRES   REMARKS
WILLISTON      SUNNY     64  42  44 W8G16     29.86F
MINOT          MOSUNNY   65  42  43 W14       29.81S
DICKINSON      PTSUNNY   56  37  49 W16       29.91S
BEACH          PTSUNNY   55  37  50 W16       29.97S
CROSBY           N/A     64  41  42 NW17      29.83S
TIOGA            N/A     59  43  55 W17       29.86S
WATFORD CITY     N/A     61  43  51 W13       29.87F
BISMARCK       SUNNY     66  42  41 W9        29.89S
GRAND FORKS    MOSUNNY   70  46  42 W13       29.77S
FARGO          SUNNY     67  45  45 SW10      29.82S
BUFFALO SD       N/A     61  40  45 W16       29.93R
RAPID CITY     SUNNY     61  43  51 N14       30.01S
$$

REGIONAL REPORTS...WYOMING/IDAHO/WASHINGTON

CITY           SKY/WX    TMP DP  RH WIND       PRES   REMARKS
GILLETTE       SUNNY     55  42  61 W9        30.07R
SHERIDAN       SUNNY     60  41  49 NW12      30.09R
BUFFALO WY     SUNNY     57  36  45 NW17G28   30.10R
CODY           SUNNY     55  33  43 W6        30.16R
YELLOWSTONE LA   N/A     35  33  92 VRB3      30.27R
IDAHO FALLS    MOSUNNY   46  41  82 CALM      30.24S
SALMON         SUNNY     50  39  66 CALM      30.21R
BOISE          SUNNY     57  41  55 SE5       30.17R
SPOKANE        MOSUNNY   60  42  51 S8        30.12R
$$

REGIONAL REPORTS...ALBERTA

CITY           SKY/WX    TMP DP  RH WIND       PRES   REMARKS
EDMONTON       MOSUNNY   64  46  52 W10G17    29.88R
CALGARY        MOSUNNY   66  37  34 NW13G21   30.02R
MEDICINE HAT   MOSUNNY   64  46  52 W7        29.95R
WATERTON GATE    N/A     59  36  41 SW17G24     N/A
CARDSTON         N/A     63  37  39 W12G17      N/A
MILK RIVER       N/A     63  45  51 W9          N/A
ONEFOUR          N/A     57  41  54 NW16G23     N/A
$$

REGIONAL REPORTS...SASKATCHEWAN

CITY           SKY/WX    TMP DP  RH WIND       PRES   REMARKS
SWIFT CURRENT  MOSUNNY   59  46  63 W13G18    29.87R
REGINA         MOSUNNY   59  41  51 NW5       29.81R
SASKATOON      PTSUNNY   59  41  51 NW14      29.80R
CYPRESS HILLS    N/A     57  39  51 NW6         N/A
VAL MARIE        N/A     63  41  45 NW10        N/A
ROCKGLEN         N/A     61  43  51 W9          N/A
ASSINIBOIA       N/A     63  39  42 E1          N/A
$$




USA.gov is the U.S. government's official web portal to all federal, state and local government web resources and services.